Date String (YYYY-MM-DD hh:mm:ss) UTC,Instrument flags,Ambient pressure (hPa),Sample flow (lpm),Bypass flow (lpm),Sample temperature (°C),Ambient temperature (°C),ASC tube jacket temperature (°C),LED temperature (°C),Box temperature (°C),Sample RH (%),Span deviation,Mass concentration (μg/m³),Mass concentration (μg/m³),Mass concentration (μg/m³)
DateTimeUTC,F1_M11,P_M11,Q1_M11,Q2_M11,T1_M11,T2_M11,T3_M11,T4_M11,T5_M11,U1_M11,ZSPAN_M11,X0_M11,X2_M11,X1_M11
2022-10-29 04:00:00,,0830.1,5.01,0.00,27.4,25.6,00.0,36.4,29.1,10.4,0000.0,0005.51,0003.60,0003.39
2022-10-29 04:01:00,,0830.1,5.00,0.00,27.4,25.6,00.0,36.4,29.1,10.4,0000.0,0005.51,0003.58,0003.36
2022-10-29 04:02:00,,0830.1,4.99,0.00,27.4,25.6,00.0,36.3,29.1,10.4,0000.0,0005.50,0003.55,0003.34
2022-10-29 04:03:00,,0830.0,5.01,0.00,27.4,25.6,00.0,36.4,29.1,10.4,0000.0,0005.46,0003.53,0003.33
2022-10-29 04:04:00,,0830.1,4.98,0.00,27.4,25.6,00.0,36.3,29.1,10.2,0000.0,0005.35,0003.49,0003.31
2022-10-29 04:05:00,,0830.1,5.00,0.00,27.4,25.6,00.0,36.3,29.1,10.2,0000.0,0005.36,0003.48,0003.29
2022-10-29 04:06:00,,0830.1,5.00,0.00,27.4,25.6,00.0,36.3,29.1,10.4,0000.0,0005.24,0003.48,0003.28
2022-10-29 04:07:00,,0830.1,5.00,0.00,27.4,25.6,00.0,36.3,29.1,10.3,0000.0,0005.83,0003.45,0003.26
2022-10-29 04:08:00,,0830.1,5.00,0.00,27.4,25.6,00.0,36.3,29.1,10.2,0000.0,0006.33,0003.45,0003.23
2022-10-29 04:09:00,,0830.1,5.00,0.00,27.4,25.6,00.0,36.3,29.1,10.2,0000.0,0006.43,0003.46,0003.21
2022-10-29 04:10:00,,0830.0,5.02,0.00,27.3,25.6,00.0,36.3,29.0,10.2,0000.0,0006.57,0003.47,0003.20
2022-10-29 04:11:00,,0830.1,5.00,0.00,27.3,25.5,00.0,36.3,29.0,10.2,0000.0,0006.75,0003.49,0003.20
2022-10-29 04:12:00,,0830.1,4.99,0.00,27.3,25.5,00.0,36.3,29.0,10.3,0000.0,0006.82,0003.50,0003.20
2022-10-29 04:13:00,,0830.0,5.00,0.00,27.3,25.5,00.0,36.3,29.0,10.2,0000.0,0006.79,0003.49,0003.19
2022-10-29 04:14:00,,0830.1,5.00,0.00,27.3,25.5,00.0,36.3,29.0,10.0,0000.0,0006.98,0003.48,0003.18
2022-10-29 04:15:00,,0830.0,5.00,0.00,27.3,25.5,00.0,36.2,29.0,10.0,0000.0,0007.36,0003.45,0003.15
2022-10-29 04:16:00,,0830.1,4.98,0.00,27.3,25.5,00.0,36.2,28.9,10.0,0000.0,0007.26,0003.42,0003.14
2022-10-29 04:17:00,,0830.1,5.00,0.00,27.2,25.4,00.0,36.2,28.9,10.0,0000.0,0007.11,0003.38,0003.12
2022-10-29 04:18:00,,0830.1,5.00,0.00,27.2,25.4,00.0,36.2,28.9,10.0,0000.0,0006.97,0003.36,0003.08
2022-10-29 04:19:00,,0830.0,5.00,0.00,27.2,25.4,00.0,36.2,28.9,10.1,0000.0,0006.61,0003.34,0003.06
2022-10-29 04:20:00,,0830.0,5.00,0.00,27.2,25.4,00.0,36.2,28.9,10.1,0000.0,0006.47,0003.31,0003.04
2022-10-29 04:21:00,,0830.0,5.00,0.00,27.2,25.4,00.0,36.2,28.9,10.1,0000.0,0006.18,0003.28,0003.02
2022-10-29 04:22:00,,0830.0,5.00,0.00,27.2,25.4,00.0,36.2,28.9,10.1,0000.0,0006.19,0003.24,0002.98
2022-10-29 04:23:00,,0830.0,5.00,0.00,27.2,25.4,00.0,36.1,28.9,10.1,0000.0,0007.40,0003.20,0002.93
2022-10-29 04:24:00,,0829.9,5.00,0.00,27.2,25.4,00.0,36.1,28.8,10.1,0000.0,0007.33,0003.17,0002.90
2022-10-29 04:25:00,,0829.9,5.01,0.00,27.1,25.3,00.0,36.1,28.8,10.1,0000.0,0007.09,0003.15,0002.89
2022-10-29 04:26:00,,0829.9,4.98,0.00,27.1,25.3,00.0,36.1,28.9,10.2,0000.0,0006.61,0003.14,0002.89
2022-10-29 04:27:00,,0829.9,5.00,0.00,27.1,25.3,00.0,36.1,28.8,10.1,0000.0,0006.64,0003.14,0002.87
2022-10-29 04:28:00,,0829.9,5.00,0.00,27.1,25.3,00.0,36.1,28.8,10.1,0000.0,0006.76,0003.16,0002.86
2022-10-29 04:29:00,,0829.9,5.00,0.00,27.1,25.3,00.0,36.1,28.8,10.0,0000.0,0006.17,0003.15,0002.84
2022-10-29 04:30:00,,0829.9,5.00,0.00,27.1,25.3,00.0,36.1,28.9,10.1,0000.0,0005.84,0003.13,0002.83
2022-10-29 04:31:00,,0829.9,4.99,0.00,27.1,25.3,00.0,36.1,28.8,10.1,0000.0,0005.77,0003.09,0002.80
2022-10-29 04:32:00,,0829.9,5.00,0.00,27.1,25.3,00.0,36.1,28.7,10.0,0000.0,0005.75,0003.07,0002.78
2022-10-29 04:33:00,,0829.9,5.01,0.00,27.0,25.2,00.0,36.0,28.7,10.0,0000.0,0005.55,0003.04,0002.76
2022-10-29 04:34:00,,0829.9,5.01,0.00,27.0,25.2,00.0,36.0,28.7,09.9,0000.0,0003.98,0003.02,0002.74
2022-10-29 04:35:00,,0829.8,5.00,0.00,27.0,25.2,00.0,36.0,28.7,09.9,0000.0,0003.98,0003.01,0002.73
2022-10-29 04:36:00,,0829.8,5.01,0.00,27.0,25.2,00.0,36.0,28.7,09.9,0000.0,0003.97,0002.99,0002.69
2022-10-29 04:37:00,,0829.8,4.98,0.00,27.0,25.2,00.0,36.0,28.7,09.8,0000.0,0003.79,0002.95,0002.67
2022-10-29 04:38:00,,0829.8,5.01,0.00,27.0,25.2,00.0,36.0,28.7,09.8,0000.0,0003.76,0002.95,0002.67
2022-10-29 04:39:00,,0829.8,5.01,0.00,27.0,25.2,00.0,36.0,28.7,09.7,0000.0,0003.67,0002.91,0002.66
2022-10-29 04:40:00,,0829.7,5.01,0.00,27.0,25.2,00.0,36.0,28.7,09.7,0000.0,0003.63,0002.89,0002.65
2022-10-29 04:41:00,,0829.8,5.00,0.00,27.0,25.2,00.0,35.9,28.7,09.6,0000.0,0003.60,0002.88,0002.64
2022-10-29 04:42:00,,0829.8,4.98,0.00,27.0,25.2,00.0,35.9,28.6,09.7,0000.0,0003.55,0002.87,0002.63
2022-10-29 04:43:00,,0829.8,5.01,0.00,26.9,25.2,00.0,35.9,28.6,09.9,0000.0,0003.59,0002.87,0002.62
2022-10-29 04:44:00,,0829.8,5.00,0.00,26.9,25.2,00.0,35.9,28.7,10.0,0000.0,0003.62,0002.88,0002.62
2022-10-29 04:45:00,,0829.7,5.00,0.00,26.9,25.2,00.0,35.9,28.6,09.9,0000.0,0003.72,0002.90,0002.62
2022-10-29 04:46:00,,0829.8,5.00,0.00,26.9,25.1,00.0,35.9,28.6,09.9,0000.0,0003.68,0002.87,0002.61
2022-10-29 04:47:00,,0829.8,5.01,0.00,26.9,25.1,00.0,35.9,28.7,09.8,0000.0,0003.67,0002.88,0002.60
2022-10-29 04:48:00,,0829.8,5.00,0.00,26.9,25.1,00.0,35.9,28.6,09.8,0000.0,0003.79,0002.90,0002.59
2022-10-29 04:49:00,,0829.8,5.00,0.00,26.9,25.1,00.0,35.9,28.6,09.7,0000.0,0003.85,0002.89,0002.56
2022-10-29 04:50:00,,0829.8,5.00,0.00,26.9,25.1,00.0,35.9,28.6,09.7,0000.0,0003.96,0002.88,0002.53
2022-10-29 04:51:00,,0829.8,5.00,0.00,26.9,25.1,00.0,35.8,28.6,09.6,0000.0,0004.02,0002.88,0002.52
2022-10-29 04:52:00,,0829.8,5.01,0.00,26.9,25.1,00.0,35.8,28.6,09.7,0000.0,0003.98,0002.86,0002.51
2022-10-29 04:53:00,,0829.8,5.01,0.00,26.9,25.0,00.0,35.8,28.5,09.8,0000.0,0004.27,0002.85,0002.51
2022-10-29 04:54:00,,0829.8,5.00,0.00,26.8,25.1,00.0,35.8,28.6,09.8,0000.0,0004.41,0002.84,0002.50
2022-10-29 04:55:00,,0829.8,5.00,0.00,26.8,25.0,00.0,35.8,28.6,09.9,0000.0,0004.43,0002.82,0002.51
2022-10-29 04:56:00,,0829.8,4.97,0.00,26.8,25.0,00.0,35.8,28.5,09.9,0000.0,0004.47,0002.86,0002.51
2022-10-29 04:57:00,,0829.8,5.00,0.00,26.8,25.0,00.0,35.8,28.5,09.9,0000.0,0004.55,0002.90,0002.52
2022-10-29 04:58:00,,0829.8,5.00,0.00,26.8,25.0,00.0,35.8,28.5,09.9,0000.0,0004.62,0002.93,0002.53
2022-10-29 04:59:00,,0829.8,5.01,0.00,26.8,25.0,00.0,35.8,28.5,09.9,0000.0,0005.23,0002.91,0002.55
